Satellite: STUDSAT
Catalog number: 36801
Epoch time: 15001.20914503
Element set: 970
Inclination: 098.0517 deg
RA of node: 112.6087 deg
Eccentricity: 0.0006431
Arg of perigee: 344.1509 deg
Mean anomaly: 075.0353 deg
Mean motion: 15.04031943 rev/day
Decay rate: 1.8235e-04 rev/day^2
Epoch rev: 24280
Checksum: 255
Satellite: ALMASAT-1
Catalog number: 38078
Epoch time: 15001.87568157
Element set: 253
Inclination: 069.4612 deg
RA of node: 295.4735 deg
Eccentricity: 0.0531087
Arg of perigee: 125.9144 deg
Mean anomaly: 239.3014 deg
Mean motion: 14.65005738 rev/day
Decay rate: 1.9991e-04 rev/day^2
Epoch rev: 15056
Checksum: 319
Satellite: XATCOBEO
Catalog number: 38082
Epoch time: 14243.34478676
Element set: 563
Inclination: 069.3815 deg
RA of node: 097.0364 deg
Eccentricity: 0.0033293
Arg of perigee: 225.1799 deg
Mean anomaly: 135.4582 deg
Mean motion: 16.41261006 rev/day
Decay rate: 1.3583328e-01 rev/day^2
Epoch rev: 13623
Checksum: 317
Satellite: CUBEBUG-1
Catalog number: 39153
Epoch time: 15001.17267325
Element set: 759
Inclination: 098.0300 deg
RA of node: 086.0193 deg
Eccentricity: 0.0018753
Arg of perigee: 074.7090 deg
Mean anomaly: 285.6192 deg
Mean motion: 14.78563028 rev/day
Decay rate: 1.463e-05 rev/day^2
Epoch rev: 9079
Checksum: 306
Satellite: ESTCUBE-1
Catalog number: 39161
Epoch time: 15001.74387300
Element set: 807
Inclination: 098.0851 deg
RA of node: 086.1070 deg
Eccentricity: 0.0010659
Arg of perigee: 121.0792 deg
Mean anomaly: 239.1416 deg
Mean motion: 14.70658081 rev/day
Decay rate: 2.074e-05 rev/day^2
Epoch rev: 8877
Checksum: 289
Satellite: DUCHIFAT-1
Catalog number: 40021
Epoch time: 15001.68020699
Element set: 582
Inclination: 097.9672 deg
RA of node: 261.7617 deg
Eccentricity: 0.0014553
Arg of perigee: 015.3145 deg
Mean anomaly: 344.8510 deg
Mean motion: 14.86772258 rev/day
Decay rate: 4.579e-05 rev/day^2
Epoch rev: 2905
Checksum: 302
Satellite: NANOSATCBR1
Catalog number: 40024
Epoch time: 15001.90140035
Element set: 572
Inclination: 097.9658 deg
RA of node: 261.8968 deg
Eccentricity: 0.0013652
Arg of perigee: 014.0370 deg
Mean anomaly: 346.1214 deg
Mean motion: 14.86520916 rev/day
Decay rate: 4.260e-05 rev/day^2
Epoch rev: 2908
Checksum: 272
Satellite: DTUSAT-2
Catalog number: 40030
Epoch time: 15001.76076861
Element set: 565
Inclination: 097.9661 deg
RA of node: 261.5931 deg
Eccentricity: 0.0012912
Arg of perigee: 009.3416 deg
Mean anomaly: 350.8024 deg
Mean motion: 14.85893721 rev/day
Decay rate: 3.393e-05 rev/day^2
Epoch rev: 2906
Checksum: 290
Satellite: ANTELSAT
Catalog number: 40034
Epoch time: 15001.88713178
Element set: 580
Inclination: 097.9621 deg
RA of node: 257.4714 deg
Eccentricity: 0.0060027
Arg of perigee: 293.0488 deg
Mean anomaly: 066.4396 deg
Mean motion: 14.72043353 rev/day
Decay rate: 2.980e-05 rev/day^2
Epoch rev: 2882
Checksum: 300
/EX
SB KEPS @ AMSAT $ORB15001.W
Orbital Elements 15001.WEATHER
HR AMSAT ORBITAL ELEMENTS FOR WEATHER SATELLITES
FROM WA5QGD FORT WORTH,TX January 1, 2015
BID: ORB15001.W
TO ALL RADIO AMATEURS BT
Satellite: MET-2/21
Catalog number: 22782
Epoch time: 15001.19162833
Element set: 263
Inclination: 082.5482 deg
RA of node: 016.1890 deg
Eccentricity: 0.0023464
Arg of perigee: 071.7006 deg
Mean anomaly: 340.4547 deg
Mean motion: 13.83755783 rev/day
Decay rate: 3.3e-07 rev/day^2
Epoch rev: 7750
Checksum: 284
Satellite: OKEAN-4
Catalog number: 23317
Epoch time: 15001.09773845
Element set: 748
Inclination: 082.5374 deg
RA of node: 242.3050 deg
Eccentricity: 0.0020930
Arg of perigee: 159.7187 deg
Mean anomaly: 356.2682 deg
Mean motion: 14.86177315 rev/day
Decay rate: 1.001e-05 rev/day^2
Epoch rev: 9249
Checksum: 296
Satellite: NOAA-14
Catalog number: 23455
Epoch time: 15001.56848304
Element set: 37
Inclination: 098.7653 deg
RA of node: 086.3670 deg
Eccentricity: 0.0009577
Arg of perigee: 188.9083 deg
Mean anomaly: 283.7616 deg
Mean motion: 14.14013417 rev/day
Decay rate: 5.7e-07 rev/day^2
Epoch rev: 3198
Checksum: 315
Satellite: NOAA-15
Catalog number: 25338
Epoch time: 15001.88551451
Element set: 477
Inclination: 098.7645 deg
RA of node: 000.4931 deg
Eccentricity: 0.0009947
Arg of perigee: 294.0101 deg
Mean anomaly: 066.0523 deg
Mean motion: 14.25541830 rev/day
Decay rate: 3.25e-06 rev/day^2
Epoch rev: 86535
Checksum: 293
Satellite: RESURS
Catalog number: 25394
Epoch time: 15001.53481613
Element set: 844
Inclination: 098.4432 deg
RA of node: 322.8404 deg
Eccentricity: 0.0002269
Arg of perigee: 068.1828 deg
Mean anomaly: 043.7184 deg
Mean motion: 14.24431693 rev/day
Decay rate: 4.8e-07 rev/day^2
Epoch rev: 85655
Checksum: 297
Satellite: FENGYUN1
Catalog number: 25730
Epoch time: 14365.73547547
Element set: 332
Inclination: 098.9298 deg
RA of node: 325.8521 deg
Eccentricity: 0.0019970
Arg of perigee: 274.6694 deg
Mean anomaly: 206.6982 deg
Mean motion: 14.12801368 rev/day
Decay rate: 2.839e-05 rev/day^2
Epoch rev: 80540
Checksum: 336
Satellite: OKEAN-0
Catalog number: 25860
Epoch time: 15001.60648137
Element set: 456
Inclination: 098.0722 deg
RA of node: 329.6467 deg
Eccentricity: 0.0001922
Arg of perigee: 111.6782 deg
Mean anomaly: 307.2619 deg
Mean motion: 14.75709682 rev/day
Decay rate: 7.44e-06 rev/day^2
Epoch rev: 83141
Checksum: 302
Satellite: NOAA-16
Catalog number: 26536
Epoch time: 15001.84105631
Element set: 975
Inclination: 098.9661 deg
RA of node: 067.8087 deg
Eccentricity: 0.0010287
Arg of perigee: 348.5000 deg
Mean anomaly: 011.6415 deg
Mean motion: 14.13067337 rev/day
Decay rate: 4.2e-07 rev/day^2
Epoch rev: 73616
Checksum: 291
Satellite: NOAA-17
Catalog number: 27453
Epoch time: 15001.86283351
Element set: 867
Inclination: 098.3261 deg
RA of node: 356.2317 deg
Eccentricity: 0.0010990
Arg of perigee: 315.9746 deg
Mean anomaly: 044.1044 deg
Mean motion: 14.24839293 rev/day
Decay rate: 1.26e-06 rev/day^2
Epoch rev: 65097
Checksum: 311
Satellite: NOAA-18
Catalog number: 28654
Epoch time: 15001.91414368
Element set: 388
Inclination: 099.1699 deg
RA of node: 350.6323 deg
Eccentricity: 0.0015225
Arg of perigee: 067.7572 deg
Mean anomaly: 292.5690 deg
Mean motion: 14.12128153 rev/day
Decay rate: 1.29e-06 rev/day^2
Epoch rev: 49561
Checksum: 318
Satellite: NOAA-19
Catalog number: 33591
Epoch time: 15001.84390441
Element set: 519
Inclination: 098.9684 deg
RA of node: 311.5179 deg
Eccentricity: 0.0013478
Arg of perigee: 280.5294 deg
Mean anomaly: 079.4828 deg
Mean motion: 14.11845207 rev/day
Decay rate: 2.62e-06 rev/day^2
Epoch rev: 30400
Checksum: 308
/EX
SB KEPS @ AMSAT $ORB15001.M
Orbital Elements 15001.MISC
HR AMSAT ORBITAL ELEMENTS FOR MANNED AND MISCELLANEOUS SATELLITES
FROM WA5QGD FORT WORTH,TX January 1, 2015
BID: ORB15001.M
TO ALL RADIO AMATEURS BT
Satellite: HUBBLE
Catalog number: 20580
Epoch time: 14365.90106583
Element set: 191
Inclination: 028.4687 deg
RA of node: 176.5490 deg
Eccentricity: 0.0002625
Arg of perigee: 243.1761 deg
Mean anomaly: 246.5781 deg
Mean motion: 15.06549281 rev/day
Decay rate: 2.059e-05 rev/day^2
Epoch rev: 15455
Checksum: 301
Satellite: ISS
Catalog number: 25544
Epoch time: 15001.90620712
Element set: 664
Inclination: 051.6456 deg
RA of node: 193.9106 deg
Eccentricity: 0.0007121
Arg of perigee: 197.4499 deg
Mean anomaly: 315.2103 deg
Mean motion: 15.52915813 rev/day
Decay rate: 1.2362e-04 rev/day^2
Epoch rev: 92216
Checksum: 276
